This demonstration page uses our WeatherBlox Daily Observations layout. Learn more.

Left ArrowRight Arrow

Hourly Observations for April 15, 2022

Temp ( °F °C ) Dew Point ( °F °C ) Humidity (%) Winds ( mph kmh ) Pressure ( in mb ) Visibility ( mi km ) Precip ( " mm )
12:53 am 00:53 Clear 37 2.8 11 -11.7 34 34 NE 13 20 29.98 1015 10 16 0.00 0.00
1:53 am 01:53 Clear 33 0.6 10 -12.2 38 38 NE 12 19 29.99 1016 10 16 0.00 0.00
2:53 am 02:53 Clear 30 -1.1 10 -12.2 43 43 NNE 9 15 29.97 1015 10 16 0.00 0.00
3:53 am 03:53 Clear 26 -3.3 10 -12.2 51 51 NE 7 11 29.96 1015 10 16 0.00 0.00
4:53 am 04:53 Clear 25 -3.9 10 -12.2 53 53 NE 8 13 29.96 1015 10 16 0.00 0.00
5:53 am 05:53 Clear 27 -2.8 11 -11.7 51 51 NNE 14 22 29.95 1014 10 16 0.00 0.00
6:53 am 06:53 Clear 26 -3.3 11 -11.7 53 53 NE 15 24 29.96 1015 10 16 0.00 0.00
7:53 am 07:53 Sunny 26 -3.3 12 -11.1 55 55 NNE 16 26 29.99 1016 10 16 0.00 0.00
8:53 am 08:53 Sunny 29 -1.7 13 -10.6 51 51 NNE 20 31 30.01 1016 10 16 0.00 0.00
9:53 am 09:53 Sunny 33 0.6 14 -10 45 45 NE 17 28 30.01 1016 10 16 0.00 0.00
10:53 am 10:53 Sunny 36 2.2 13 -10.6 39 39 N 17 28 30.01 1016 10 16 0.00 0.00
11:53 am 11:53 Sunny 40 4.4 15 -9.4 36 36 NNE 14 22 30.00 1016 10 16 0.00 0.00
12:53 pm 12:53 Sunny 43 6.1 17 -8.3 35 35 NE 16 26 30.00 1016 10 16 0.00 0.00
1:53 pm 13:53 Sunny 46 7.8 16 -8.9 30 30 NE 17 28 29.99 1016 10 16 0.00 0.00
2:53 pm 14:53 Sunny 49 9.4 16 -8.9 27 27 NE 13 20 30.00 1016 10 16 0.00 0.00
3:53 pm 15:53 Sunny 49 9.4 16 -8.9 27 27 NNE 9 15 30.01 1016 10 16 0.00 0.00
4:53 pm 16:53 Sunny 50 10 17 -8.3 27 27 NE 9 15 30.01 1016 10 16 0.00 0.00
5:53 pm 17:53 Sunny 49 9.4 18 -7.8 29 29 NNE 10 17 30.02 1017 10 16 0.00 0.00
6:53 pm 18:53 Sunny 48 8.9 19 -7.2 32 32 NNE 12 19 30.04 1017 10 16 0.00 0.00
7:53 pm 19:53 Sunny 44 6.7 20 -6.7 38 38 NNE 10 17 30.09 1019 10 16 0.00 0.00
8:53 pm 20:53 Clear 39 3.9 20 -6.7 46 46 ENE 8 13 30.09 1019 10 16 0.00 0.00
9:53 pm 21:53 Clear 35 1.7 19 -7.2 52 52 N 7 11 30.18 1022 10 16 0.00 0.00
10:53 pm 22:53 Clear 32 0 17 -8.3 54 54 NNE 6 9 30.20 1023 10 16 0.00 0.00
11:53 pm 23:53 Clear 37 2.8 17 -8.3 44 44 N 14 22 30.22 1023 10 16 0.00 0.00

Powered by AerisWeather